Location: La Brionne
(46.1728°N, 1.7849°E)
Time: 03:11:25
(UTC+00:00)

Cosmos 2219 Rocket - Pass Details

Date: 23 October 2021
Orbit: 827 x 848 km, 71.0° (Epoch: 26 November)

Event Time Altitude Azimuth Distance (km) Brightness Sun altitude
Rises 05:16:35 0° 332° (NNW) 3,401 5.0 -11.8°
Reaches altitude 10° 05:19:02 10° 332° (NNW) 2,466 4.3 -11.4°
Maximum altitude 05:24:42 82° 246° (WSW) 857 2.2 -10.4°
Drops below altitude 10° 05:30:22 10° 159° (SSE) 2,461 5.0 -9.4°
Sets 05:32:48 0° 159° (SSE) 3,394 5.8 -9.0°
